Weather History for KMCB - March, 2012

Change the Weather History Date:

Tuesday, March 13, 2012

  Actual Average Record
Temperature  
Mean Temperature 68 °F -  
Max Temperature 79 °F 70 °F 86 °F (1963)
Min Temperature 57 °F 47 °F 26 °F (1993)
Cooling Degree Days 2    
Growing Degree Days 18 (Base 50)    
Moisture  
Dew Point 63 °F    
Average Humidity 93    
Maximum Humidity 100    
Minimum Humidity 62    
Precipitation  
Precipitation 0.00 in - - ()
Sea Level Pressure  
Sea Level Pressure 30.19 in    
Wind  
Wind Speed 2 mph (SSE)    
Max Wind Speed 8 mph    
Max Gust Speed -    
Visibility 6 miles    
Events Fog    
Averages and records for this station are not official NWS values.
T = Trace of Precipitation, MM = Missing Value Source: NWS Daily Summary

Daily Weather History Graph

Daily Weather History Graph

Search for Another Location

Airport or City:

Trip Planner

Search our weather history database for the weather conditions in past years. The results will help you decide how hot, cold, wet, or windy it might be!

Date:

Astronomy

Mar. 13, 2012 Rise Set
Actual Time 7:13 AM CDT 7:09 PM CDT
Civil Twilight 6:49 AM CDT 7:33 PM CDT
Nautical Twilight 6:21 AM CDT 8:01 PM CDT
Astronomical Twilight 5:53 AM CDT 8:29 PM CDT
Moon 12:16 AM CDT (3/13) 10:52 AM CDT (3/13)
Length of Visible Light 12h 43m
Length of Day
11h 55m
Waning Gibbous, 65% of the Moon is Illuminated
Mar 13
Waning Gibbous
Mar 14
Last Quarter
Mar 22
New
Mar 30
First Quarter
Apr 6
Full

Hourly Weather History & Observations

Time (CDT) Temp. Dew Point Humidity Pressure Visibility Wind Dir Wind Speed Gust Speed Precip Events Conditions
12:01 AM 62.6 °F 62.6 °F 100% 30.17 in 1.2 mi SSE 3.5 mph - N/A   Clear
12:07 AM 62.6 °F 62.6 °F 100% 30.18 in 3.0 mi Calm Calm - N/A   Clear
12:30 AM 60.8 °F 60.8 °F 100% 30.17 in 1.8 mi SSE 3.5 mph - N/A   Clear
12:50 AM 60.8 °F 60.8 °F 100% 30.17 in 4.0 mi Calm Calm - N/A   Clear
12:53 AM 61.0 °F 61.0 °F 100% 30.17 in 6.0 mi Calm Calm - N/A   Clear
12:59 AM 60.8 °F 60.8 °F 100% 30.17 in 1.8 mi Calm Calm - N/A   Partly Cloudy
1:06 AM 60.8 °F 60.8 °F 100% 30.17 in 0.8 mi Calm Calm - N/A   Mist
1:30 AM 60.8 °F 60.8 °F 100% 30.17 in 1.2 mi Calm Calm - N/A   Partly Cloudy
1:42 AM 59.0 °F 59.0 °F 100% 30.17 in 0.8 mi Calm Calm - N/A   Mist
1:53 AM 60.1 °F 59.0 °F 96% 30.17 in 0.5 mi Calm Calm - N/A Fog Fog
2:02 AM 59.0 °F 59.0 °F 100% 30.18 in 1.2 mi Calm Calm - N/A   Partly Cloudy
2:24 AM 57.2 °F 57.2 °F 100% 30.17 in 0.8 mi Calm Calm - N/A   Mist
2:40 AM 57.2 °F 57.2 °F 100% 30.17 in 1.2 mi SSE 3.5 mph - N/A   Partly Cloudy
2:45 AM 57.2 °F 57.2 °F 100% 30.17 in 0.8 mi SSE 3.5 mph - N/A   Mist
2:53 AM 57.9 °F 57.9 °F 100% 30.16 in 0.8 mi SSE 3.5 mph - N/A   Mist
2:57 AM 57.2 °F 57.2 °F 100% 30.17 in 2.0 mi SSE 3.5 mph - N/A   Clear
3:07 AM 57.2 °F 57.2 °F 100% 30.17 in 3.0 mi SSE 3.5 mph - N/A   Scattered Clouds
3:17 AM 59.0 °F 59.0 °F 100% 30.17 in 6.0 mi SSE 3.5 mph - N/A   Mostly Cloudy
3:53 AM 60.1 °F 60.1 °F 100% 30.15 in 7.0 mi Calm Calm - N/A   Overcast
4:06 AM 60.8 °F 60.8 °F 100% 30.16 in 7.0 mi SSE 3.5 mph - N/A   Overcast
4:53 AM 62.1 °F 62.1 °F 100% 30.15 in 9.0 mi Calm Calm - N/A   Overcast
5:53 AM 62.1 °F 62.1 °F 100% 30.16 in 8.0 mi Calm Calm - N/A   Overcast
6:53 AM 63.0 °F 62.1 °F 97% 30.18 in 10.0 mi Calm Calm - N/A   Overcast
7:29 AM 62.6 °F 62.6 °F 100% 30.20 in 8.0 mi Calm Calm - N/A   Overcast
7:33 AM 62.6 °F 62.6 °F 100% 30.20 in 7.0 mi Calm Calm - N/A   Overcast
7:53 AM 63.0 °F 63.0 °F 100% 30.20 in 5.0 mi Calm Calm - N/A   Overcast
8:00 AM 62.6 °F 62.6 °F 100% 30.21 in 5.0 mi Calm Calm - N/A   Overcast
8:51 AM 64.4 °F 64.4 °F 100% 30.22 in 4.0 mi SSE 3.5 mph - 0.00 in   Overcast
8:53 AM 64.0 °F 64.0 °F 100% 30.22 in 4.0 mi SSE 4.6 mph - 0.00 in   Overcast
9:07 AM 64.4 °F 64.4 °F 100% 30.23 in 1.8 mi SSE 4.6 mph - N/A   Overcast
9:27 AM 64.4 °F 64.4 °F 100% 30.24 in 2.5 mi SSE 4.6 mph - N/A   Overcast
9:37 AM 64.4 °F 64.4 °F 100% 30.24 in 3.0 mi SSE 3.5 mph - N/A   Overcast
9:53 AM 64.9 °F 64.9 °F 100% 30.23 in 4.0 mi South 4.6 mph - N/A   Overcast
10:53 AM 68.0 °F 66.9 °F 96% 30.24 in 5.0 mi SSE 5.8 mph - N/A   Overcast
11:09 AM 69.8 °F 66.2 °F 88% 30.25 in 8.0 mi South 5.8 mph - N/A   Overcast
11:53 AM 71.1 °F 68.0 °F 90% 30.24 in 10.0 mi Calm Calm - N/A   Overcast
12:23 PM 71.6 °F 66.2 °F 83% 30.24 in 10.0 mi Calm Calm - N/A   Overcast
12:41 PM 73.4 °F 68.0 °F 83% 30.24 in 10.0 mi Variable 3.5 mph - N/A   Mostly Cloudy
12:53 PM 75.0 °F 66.9 °F 76% 30.22 in 10.0 mi South 5.8 mph - N/A   Overcast
1:53 PM 75.9 °F 66.0 °F 71% 30.19 in 10.0 mi South 8.1 mph - N/A   Partly Cloudy
2:53 PM 77.0 °F 64.9 °F 66% 30.17 in 10.0 mi Variable 3.5 mph - N/A   Clear
3:53 PM 78.1 °F 64.0 °F 62% 30.15 in 10.0 mi WSW 5.8 mph - N/A   Mostly Cloudy
4:53 PM 78.1 °F 64.0 °F 62% 30.14 in 10.0 mi South 5.8 mph - N/A   Mostly Cloudy
5:53 PM 78.1 °F 64.0 °F 62% 30.13 in 10.0 mi South 6.9 mph - N/A   Mostly Cloudy
6:53 PM 75.0 °F 64.9 °F 71% 30.14 in 10.0 mi Calm Calm - N/A   Partly Cloudy
7:53 PM 70.0 °F 66.0 °F 87% 30.14 in 10.0 mi Calm Calm - N/A   Clear
8:53 PM 66.9 °F 64.9 °F 93% 30.16 in 9.0 mi Calm Calm - N/A   Clear
9:53 PM 66.0 °F 64.0 °F 93% 30.18 in 10.0 mi South 4.6 mph - N/A   Clear
10:53 PM 66.0 °F 64.9 °F 96% 30.19 in 10.0 mi SSE 5.8 mph - N/A   Clear
11:53 PM 66.9 °F 66.0 °F 97% 30.19 in 9.0 mi South 6.9 mph - N/A   Clear